| time (UTC) | temp F | wind direction | speed knots | gust knots | rain 1hr in | rain 24hr in | rain mn in | humidity % | barometer mb |
| 20260502163803 | 48 | 301 | 6.1 | 12.2 | 0.00 | 0.33 | 0.26 | 49 | 1012.2 |
| 20260502163302 | 49 | 330 | 5.2 | 7.8 | 0.00 | 0.33 | 0.26 | 52 | 1012.2 |
| 20260502162304 | 48 | 288 | 3.5 | 8.7 | 0.00 | 0.33 | 0.26 | 51 | 1012.2 |
| 20260502161802 | 48 | 293 | 4.3 | 8.7 | 0.00 | 0.33 | 0.26 | 53 | 1012.2 |
| 20260502161302 | 48 | 276 | 5.2 | 10.4 | 0.00 | 0.33 | 0.26 | 54 | 1012.4 |
| 20260502160303 | 48 | 266 | 5.2 | 15.6 | 0.00 | 0.33 | 0.26 | 54 | 1012.3 |
| 20260502152305 | 46 | 231 | 4.3 | 11.3 | 0.00 | 0.33 | 0.26 | 59 | 1012.4 |
| 20260502151802 | 47 | 299 | 6.1 | 11.3 | 0.00 | 0.33 | 0.26 | 56 | 1012.5 |
| 20260502151302 | 46 | 258 | 6.1 | 11.3 | 0.00 | 0.33 | 0.26 | 56 | 1012.5 |
| 20260502150802 | 46 | 354 | 5.2 | 10.4 | 0.00 | 0.33 | 0.26 | 60 | 1012.4 |
| 20260502150303 | 45 | 351 | 4.3 | 10.4 | 0.00 | 0.33 | 0.26 | 60 | 1012.4 |
| 20260502130302 | 42 | 292 | 4.3 | 13.0 | 0.00 | 0.33 | 0.26 | 77 | 1012.7 |
| 20260502123802 | 42 | 335 | 7.8 | 12.2 | 0.00 | 0.33 | 0.26 | 78 | 1012.7 |
| 20260502123302 | 42 | 332 | 7.8 | 12.2 | 0.00 | 0.33 | 0.26 | 79 | 1012.7 |
| 20260502122803 | 41 | 335 | 5.2 | 11.3 | 0.00 | 0.33 | 0.26 | 80 | 1012.6 |
| 20260502122305 | 41 | 333 | 4.3 | 11.3 | 0.00 | 0.33 | 0.26 | 81 | 1012.6 |
| 20260502121803 | 41 | 352 | 4.3 | 7.8 | 0.00 | 0.33 | 0.26 | 81 | 1012.4 |
| 20260502121303 | 41 | 302 | 4.3 | 7.0 | 0.00 | 0.33 | 0.26 | 83 | 1012.3 |
| 20260502120803 | 41 | 294 | 1.7 | 5.2 | 0.00 | 0.33 | 0.26 | 83 | 1012.5 |
| 20260502120302 | 41 | 289 | 2.6 | 6.1 | 0.00 | 0.33 | 0.26 | 83 | 1012.6 |
| 20260502115803 | 41 | 318 | 2.6 | 7.0 | 0.00 | 0.33 | 0.26 | 83 | 1012.6 |
| 20260502115306 | 40 | 305 | 4.3 | 7.0 | 0.00 | 0.33 | 0.26 | 84 | 1012.7 |
| 20260502114802 | 40 | 271 | 2.6 | 5.2 | 0.00 | 0.33 | 0.26 | 84 | 1012.7 |
| 20260502114303 | 40 | 341 | 0.9 | 7.0 | 0.00 | 0.33 | 0.26 | 85 | 1012.6 |
| 20260502113803 | 40 | 346 | 2.6 | 7.0 | 0.00 | 0.33 | 0.26 | 85 | 1012.6 |
| 20260502113303 | 40 | 276 | 1.7 | 7.0 | 0.00 | 0.33 | 0.26 | 85 | 1012.6 |
| 20260502112305 | 40 | 329 | 1.7 | 6.1 | 0.00 | 0.33 | 0.26 | 85 | 1012.7 |
| 20260502111803 | 40 | 259 | 2.6 | 6.1 | 0.00 | 0.33 | 0.26 | 85 | 1012.8 |
| 20260502111303 | 40 | 265 | 1.7 | 5.2 | 0.00 | 0.33 | 0.26 | 85 | 1012.9 |
| 20260502110803 | 40 | 273 | 1.7 | 7.8 | 0.00 | 0.33 | 0.26 | 85 | 1012.8 |
| 20260502110303 | 39 | 279 | 1.7 | 7.8 | 0.00 | 0.33 | 0.26 | 84 | 1012.7 |
| 20260502105802 | 39 | 275 | 1.7 | 7.8 | 0.00 | 0.33 | 0.26 | 86 | 1012.6 |
| 20260502105305 | 39 | 276 | 1.7 | 2.6 | 0.00 | 0.33 | 0.26 | 85 | 1012.6 |
| 20260502104803 | 39 | 241 | 0.9 | 2.6 | 0.00 | 0.33 | 0.26 | 85 | 1012.7 |
| 20260502104302 | 39 | 311 | 0.9 | 2.6 | 0.00 | 0.33 | 0.26 | 84 | 1012.6 |
| 20260502103803 | 39 | 270 | 1.7 | 2.6 | 0.00 | 0.33 | 0.26 | 85 | 1012.5 |
| 20260502102803 | 39 | 230 | 0.0 | 2.6 | 0.00 | 0.33 | 0.26 | 85 | 1012.2 |
| 20260502101803 | 39 | 298 | 1.7 | 6.1 | 0.00 | 0.33 | 0.26 | 85 | 1012.0 |
| 20260502101303 | 39 | 334 | 1.7 | 5.2 | 0.00 | 0.33 | 0.26 | 84 | 1012.2 |
| 20260502100803 | 39 | 213 | 0.9 | 2.6 | 0.00 | 0.33 | 0.26 | 84 | 1012.2 |
| 20260502100303 | 39 | 259 | 0.0 | 5.2 | 0.00 | 0.33 | 0.26 | 83 | 1012.1 |
| 20260502091303 | 41 | 273 | 7.0 | 12.2 | 0.06 | 0.33 | 0.26 | 85 | 1011.5 |
| 20260502090803 | 41 | 278 | 3.5 | 10.4 | 0.06 | 0.33 | 0.26 | 86 | 1011.4 |
| 20260502071303 | 43 | 134 | 0.0 | 0.0 | 0.00 | 0.27 | 0.20 | 90 | 1010.4 |
| 20260502070803 | 43 | 134 | 0.0 | 0.0 | 0.01 | 0.27 | 0.20 | 90 | 1010.4 |
| 20260502070303 | 44 | 134 | 0.0 | 0.0 | 0.01 | 0.27 | 0.20 | 90 | 1010.3 |
| 20260502065803 | 44 | 134 | 0.0 | 0.0 | 0.01 | 0.27 | 0.20 | 90 | 1010.5 |
| 20260502065305 | 44 | 134 | 0.0 | 0.0 | 0.02 | 0.27 | 0.20 | 90 | 1010.6 |
| 20260502064803 | 44 | 134 | 0.0 | 0.0 | 0.02 | 0.27 | 0.20 | 90 | 1010.7 |
| 20260502063803 | 44 | 134 | 0.0 | 0.0 | 0.03 | 0.27 | 0.20 | 90 | 1010.8 |
| 20260502063303 | 44 | 134 | 0.0 | 1.7 | 0.03 | 0.27 | 0.20 | 90 | 1010.9 |
| 20260502062306 | 44 | 134 | 0.0 | 1.7 | 0.06 | 0.27 | 0.20 | 90 | 1010.9 |
| 20260502060803 | 44 | 134 | 0.0 | 0.9 | 0.08 | 0.26 | 0.19 | 90 | 1011.2 |
| 20260502060303 | 44 | 134 | 0.0 | 0.9 | 0.08 | 0.26 | 0.19 | 90 | 1011.4 |
| 20260502055803 | 44 | 134 | 0.0 | 0.9 | 0.09 | 0.26 | 0.19 | 90 | 1011.4 |
| 20260502055305 | 44 | 134 | 0.0 | 0.9 | 0.09 | 0.25 | 0.18 | 90 | 1011.6 |
| 20260502054803 | 44 | 134 | 0.0 | 1.7 | 0.10 | 0.25 | 0.18 | 90 | 1011.6 |
| 20260502053303 | 44 | 134 | 0.0 | 1.7 | 0.13 | 0.24 | 0.17 | 89 | 1011.5 |
| 20260502052803 | 44 | 134 | 0.0 | 1.7 | 0.14 | 0.23 | 0.16 | 89 | 1011.6 |
| 20260502052305 | 44 | 134 | 0.0 | 1.7 | 0.13 | 0.21 | 0.14 | 89 | 1011.8 |
| 20260502051803 | 44 | 138 | 0.0 | 1.7 | 0.12 | 0.20 | 0.13 | 89 | 1011.8 |
| 20260502051303 | 44 | 138 | 0.0 | 0.9 | 0.11 | 0.19 | 0.12 | 89 | 1011.9 |
| 20260502050303 | 44 | 163 | 0.0 | 1.7 | 0.11 | 0.18 | 0.11 | 89 | 1012.0 |
| 20260502045803 | 44 | 163 | 0.0 | 1.7 | 0.03 | 0.17 | 0.10 | 88 | 1011.9 |
| 20260502045305 | 45 | 214 | 0.9 | 2.6 | 0.03 | 0.16 | 0.09 | 89 | 1011.8 |
| 20260502044803 | 45 | 201 | 0.9 | 2.6 | 0.02 | 0.15 | 0.08 | 89 | 1011.8 |
| 20260502043803 | 45 | 104 | 0.0 | 1.7 | 0.00 | 0.13 | 0.06 | 90 | 1011.8 |
| 20260502043303 | 45 | 104 | 0.0 | 1.7 | 0.05 | 0.11 | 0.04 | 90 | 1012.0 |
| 20260502042803 | 45 | 137 | 0.0 | 0.9 | 0.03 | 0.09 | 0.02 | 89 | 1012.1 |
| 20260502042305 | 45 | 121 | 0.0 | 0.0 | 0.02 | 0.08 | 0.01 | 89 | 1012.0 |
| 20260502041803 | 45 | 121 | 0.0 | 0.0 | 0.02 | 0.08 | 0.01 | 89 | 1011.9 |
| 20260502041303 | 45 | 121 | 0.0 | 0.0 | 0.03 | 0.08 | 0.01 | 89 | 1011.9 |
| 20260502040814 | 45 | 121 | 0.0 | 0.0 | 0.02 | 0.07 | 0.00 | 89 | 1011.8 |
| 20260502040303 | 45 | 121 | 0.0 | 0.0 | 0.02 | 0.07 | 0.00 | 89 | 1011.7 |
| 20260502035803 | 45 | 121 | 0.0 | 0.0 | 0.02 | 0.07 | 0.07 | 89 | 1011.7 |
| 20260502035306 | 45 | 121 | 0.0 | 0.0 | 0.01 | 0.06 | 0.06 | 89 | 1011.7 |
| 20260502034803 | 45 | 121 | 0.0 | 0.0 | 0.02 | 0.06 | 0.06 | 89 | 1011.7 |
| 20260502034303 | 45 | 121 | 0.0 | 0.0 | 0.03 | 0.06 | 0.06 | 89 | 1011.6 |
| 20260502033803 | 45 | 121 | 0.0 | 0.0 | 0.03 | 0.06 | 0.06 | 89 | 1011.6 |
| 20260502032803 | 45 | 221 | 0.0 | 1.7 | 0.03 | 0.06 | 0.06 | 89 | 1011.6 |
| 20260502032305 | 45 | 216 | 0.0 | 1.7 | 0.03 | 0.06 | 0.06 | 88 | 1011.7 |
| 20260502031804 | 45 | 276 | 0.0 | 1.7 | 0.03 | 0.06 | 0.06 | 88 | 1011.7 |
| 20260502031303 | 45 | 231 | 0.9 | 2.6 | 0.02 | 0.05 | 0.05 | 88 | 1011.7 |
| 20260502030804 | 45 | 231 | 1.7 | 2.6 | 0.02 | 0.05 | 0.05 | 88 | 1011.7 |
| 20260502030303 | 45 | 308 | 0.0 | 1.7 | 0.03 | 0.05 | 0.05 | 88 | 1011.4 |
| 20260502025803 | 46 | 309 | 0.9 | 1.7 | 0.03 | 0.05 | 0.05 | 88 | 1011.4 |
| 20260502024803 | 46 | 301 | 0.9 | 1.7 | 0.02 | 0.04 | 0.04 | 87 | 1011.6 |
| 20260502024304 | 46 | 301 | 0.9 | 1.7 | 0.01 | 0.03 | 0.03 | 87 | 1011.5 |
| 20260502023803 | 46 | 301 | 0.9 | 1.7 | 0.01 | 0.03 | 0.03 | 87 | 1011.6 |
| 20260502023303 | 46 | 301 | 0.9 | 1.7 | 0.01 | 0.03 | 0.03 | 87 | 1011.7 |
| 20260502022803 | 46 | 293 | 0.9 | 1.7 | 0.01 | 0.03 | 0.03 | 87 | 1011.6 |
| 20260502022306 | 46 | 307 | 0.9 | 1.7 | 0.01 | 0.03 | 0.03 | 87 | 1011.7 |
| 20260502021304 | 46 | 298 | 0.0 | 1.7 | 0.01 | 0.03 | 0.03 | 86 | 1011.8 |
| 20260502020804 | 46 | 298 | 0.0 | 1.7 | 0.01 | 0.03 | 0.03 | 86 | 1011.9 |
| 20260502015305 | 46 | 327 | 0.9 | 2.6 | 0.00 | 0.02 | 0.02 | 86 | 1011.4 |
| 20260502014804 | 46 | 313 | 0.0 | 0.0 | 0.01 | 0.02 | 0.02 | 85 | 1011.3 |
| 20260502014304 | 46 | 313 | 0.0 | 0.0 | 0.01 | 0.02 | 0.02 | 85 | 1011.3 |
| 20260502013803 | 46 | 313 | 0.0 | 0.0 | 0.01 | 0.02 | 0.02 | 86 | 1011.4 |
| 20260502013304 | 47 | 313 | 0.0 | 0.0 | 0.01 | 0.02 | 0.02 | 86 | 1011.5 |
| 20260502012803 | 47 | 252 | 0.0 | 1.7 | 0.01 | 0.02 | 0.02 | 86 | 1011.5 |
| 20260502012306 | 47 | 252 | 0.0 | 1.7 | 0.01 | 0.02 | 0.02 | 86 | 1011.4 |
| 20260502011803 | 47 | 252 | 0.9 | 1.7 | 0.01 | 0.02 | 0.02 | 85 | 1011.4 |
| 20260502010804 | 47 | 246 | 0.0 | 0.0 | 0.01 | 0.02 | 0.02 | 84 | 1011.3 |
| 20260502010303 | 47 | 246 | 0.0 | 0.0 | 0.02 | 0.02 | 0.02 | 84 | 1011.3 |
| 20260502005803 | 47 | 246 | 0.0 | 0.0 | 0.02 | 0.02 | 0.02 | 84 | 1011.4 |
| 20260502005306 | 47 | 246 | 0.0 | 1.7 | 0.02 | 0.02 | 0.02 | 82 | 1011.4 |
| 20260502004804 | 47 | 246 | 0.0 | 1.7 | 0.01 | 0.02 | 0.01 | 82 | 1011.2 |
| 20260502003804 | 47 | 246 | 0.0 | 1.7 | 0.01 | 0.02 | 0.01 | 80 | 1011.2 |
| 20260502003303 | 48 | 290 | 0.0 | 1.7 | 0.01 | 0.02 | 0.01 | 80 | 1011.1 |
| 20260502002803 | 48 | 300 | 0.0 | 1.7 | 0.01 | 0.02 | 0.01 | 79 | 1011.2 |
| 20260502002305 | 48 | 311 | 0.9 | 1.7 | 0.01 | 0.02 | 0.01 | 78 | 1011.1 |
| 20260502001803 | 48 | 281 | 0.0 | 1.7 | 0.01 | 0.02 | 0.01 | 77 | 1011.1 |
| 20260502001303 | 49 | 232 | 0.9 | 1.7 | 0.01 | 0.02 | 0.01 | 77 | 1011.2 |
| 20260502000803 | 49 | 281 | 0.0 | 2.6 | 0.01 | 0.02 | 0.01 | 75 | 1011.2 |
| 20260502000303 | 49 | 251 | 0.9 | 6.1 | 0.00 | 0.02 | 0.00 | 73 | 1011.2 |
| 20260501235803 | 50 | 249 | 1.7 | 6.1 | 0.00 | 0.02 | 0.00 | 72 | 1011.3 |
| 20260501235305 | 50 | 237 | 2.6 | 6.1 | 0.00 | 0.02 | 0.00 | 70 | 1011.3 |
| 20260501234803 | 50 | 246 | 1.7 | 6.1 | 0.00 | 0.02 | 0.00 | 69 | 1011.2 |
| 20260501234303 | 50 | 233 | 1.7 | 6.1 | 0.00 | 0.02 | 0.00 | 68 | 1011.2 |
| 20260501233803 | 51 | 239 | 4.3 | 6.1 | 0.00 | 0.02 | 0.00 | 68 | 1011.1 |
| 20260501233303 | 51 | 263 | 2.6 | 6.1 | 0.00 | 0.03 | 0.00 | 66 | 1011.0 |
| 20260501232803 | 51 | 255 | 3.5 | 11.3 | 0.00 | 0.03 | 0.00 | 65 | 1010.8 |
| 20260501232306 | 52 | 275 | 2.6 | 11.3 | 0.00 | 0.04 | 0.00 | 64 | 1010.8 |
| 20260501231803 | 52 | 241 | 3.5 | 8.7 | 0.00 | 0.04 | 0.00 | 63 | 1010.7 |
| 20260501230804 | 52 | 261 | 1.7 | 2.6 | 0.00 | 0.06 | 0.00 | 63 | 1010.3 |
| 20260501230304 | 52 | 292 | 0.0 | 1.7 | 0.00 | 0.06 | 0.00 | 63 | 1010.3 |
| 20260501225803 | 52 | 292 | 0.0 | 0.0 | 0.00 | 0.06 | 0.00 | 63 | 1010.2 |
| 20260501225306 | 52 | 292 | 0.0 | 0.0 | 0.00 | 0.06 | 0.00 | 63 | 1010.1 |
| 20260501224804 | 52 | 292 | 0.0 | 0.0 | 0.00 | 0.07 | 0.00 | 62 | 1010.2 |
| 20260501224303 | 52 | 292 | 0.0 | 0.9 | 0.00 | 0.07 | 0.00 | 62 | 1010.2 |
| 20260501223803 | 52 | 292 | 0.0 | 0.9 | 0.00 | 0.07 | 0.00 | 63 | 1010.2 |
| 20260501223303 | 52 | 292 | 0.9 | 0.9 | 0.00 | 0.07 | 0.00 | 63 | 1010.2 |
| 20260501222803 | 52 | 273 | 0.0 | 1.7 | 0.00 | 0.07 | 0.00 | 62 | 1010.2 |
| 20260501222305 | 52 | 273 | 0.0 | 1.7 | 0.00 | 0.07 | 0.00 | 61 | 1010.2 |
| 20260501221804 | 53 | 255 | 0.9 | 1.7 | 0.00 | 0.08 | 0.00 | 60 | 1010.2 |
| 20260501221303 | 53 | 247 | 0.0 | 1.7 | 0.00 | 0.08 | 0.00 | 60 | 1010.2 |
| 20260501220804 | 53 | 215 | 0.0 | 2.6 | 0.00 | 0.08 | 0.00 | 59 | 1010.2 |
| 20260501215803 | 53 | 232 | 1.7 | 2.6 | 0.00 | 0.08 | 0.00 | 60 | 1010.5 |
| 20260501214803 | 54 | 213 | 0.9 | 6.1 | 0.00 | 0.08 | 0.00 | 57 | 1010.3 |
| 20260501213803 | 55 | 190 | 0.9 | 4.3 | 0.00 | 0.08 | 0.00 | 53 | 1010.2 |
| 20260501213304 | 55 | 258 | 1.7 | 2.6 | 0.00 | 0.08 | 0.00 | 51 | 1010.0 |
| 20260501212803 | 55 | 247 | 1.7 | 2.6 | 0.00 | 0.08 | 0.00 | 49 | 1009.8 |
| 20260501212305 | 55 | 255 | 0.9 | 2.6 | 0.00 | 0.08 | 0.00 | 51 | 1009.8 |
| 20260501211803 | 55 | 271 | 0.9 | 2.6 | 0.00 | 0.08 | 0.00 | 50 | 1009.8 |
| 20260501211303 | 55 | 282 | 0.0 | 1.7 | 0.00 | 0.08 | 0.00 | 51 | 1009.7 |
| 20260501210804 | 55 | 294 | 0.9 | 2.6 | 0.00 | 0.08 | 0.00 | 51 | 1009.7 |
| 20260501210303 | 55 | 260 | 1.7 | 7.0 | 0.00 | 0.08 | 0.00 | 50 | 1009.6 |
| 20260501205804 | 55 | 230 | 1.7 | 10.4 | 0.00 | 0.08 | 0.00 | 49 | 1009.6 |
| 20260501205306 | 56 | 197 | 4.3 | 10.4 | 0.00 | 0.08 | 0.00 | 49 | 1009.8 |
| 20260501204803 | 56 | 246 | 4.3 | 10.4 | 0.00 | 0.08 | 0.00 | 51 | 1009.8 |
| 20260501203304 | 55 | 208 | 1.7 | 8.7 | 0.00 | 0.08 | 0.00 | 48 | 1009.9 |
| 20260501202803 | 55 | 195 | 1.7 | 5.2 | 0.00 | 0.08 | 0.00 | 48 | 1010.0 |
| 20260501202306 | 55 | 222 | 1.7 | 6.1 | 0.00 | 0.08 | 0.00 | 48 | 1010.0 |
| 20260501201804 | 55 | 274 | 2.6 | 7.0 | 0.00 | 0.08 | 0.00 | 48 | 1010.0 |
| 20260501201304 | 55 | 294 | 3.5 | 7.0 | 0.00 | 0.08 | 0.00 | 48 | 1010.1 |
| 20260501200804 | 55 | 225 | 1.7 | 7.8 | 0.00 | 0.08 | 0.00 | 47 | 1010.1 |
| 20260501200304 | 55 | 223 | 2.6 | 11.3 | 0.00 | 0.08 | 0.00 | 47 | 1010.1 |
| 20260501195306 | 56 | 202 | 7.0 | 10.4 | 0.00 | 0.08 | 0.00 | 47 | 1010.1 |
| 20260501194803 | 56 | 277 | 5.2 | 10.4 | 0.00 | 0.08 | 0.00 | 48 | 1010.1 |
| 20260501194304 | 56 | 222 | 4.3 | 10.4 | 0.00 | 0.08 | 0.00 | 47 | 1010.1 |
| 20260501193803 | 57 | 239 | 5.2 | 11.3 | 0.00 | 0.08 | 0.00 | 46 | 1010.2 |
| 20260501193303 | 57 | 270 | 5.2 | 11.3 | 0.00 | 0.08 | 0.00 | 47 | 1010.2 |
| 20260501192804 | 57 | 253 | 4.3 | 10.4 | 0.00 | 0.08 | 0.00 | 45 | 1010.3 |
| 20260501192306 | 56 | 223 | 7.0 | 13.9 | 0.00 | 0.08 | 0.00 | 46 | 1010.2 |
| 20260501191804 | 56 | 237 | 7.0 | 13.9 | 0.00 | 0.08 | 0.00 | 47 | 1010.4 |
| 20260501191304 | 56 | 269 | 0.0 | 8.7 | 0.00 | 0.08 | 0.00 | 48 | 1010.3 |
| 20260501190804 | 56 | 244 | 3.5 | 11.3 | 0.00 | 0.08 | 0.00 | 46 | 1010.3 |
| 20260501190304 | 57 | 231 | 5.2 | 12.2 | 0.00 | 0.08 | 0.00 | 46 | 1010.4 |
| 20260501185804 | 57 | 205 | 1.7 | 12.2 | 0.00 | 0.08 | 0.00 | 45 | 1010.4 |
| 20260501185306 | 56 | 204 | 2.6 | 10.4 | 0.00 | 0.08 | 0.00 | 48 | 1010.4 |
| 20260501184804 | 56 | 224 | 2.6 | 10.4 | 0.00 | 0.08 | 0.00 | 44 | 1010.5 |
| 20260501183803 | 58 | 221 | 5.2 | 7.8 | 0.00 | 0.08 | 0.00 | 49 | 1010.5 |
| 20260501183303 | 58 | 245 | 1.7 | 7.8 | 0.00 | 0.08 | 0.00 | 46 | 1010.5 |
| 20260501182803 | 57 | 222 | 3.5 | 7.8 | 0.00 | 0.08 | 0.00 | 48 | 1010.6 |
| 20260501182306 | 57 | 160 | 2.6 | 10.4 | 0.00 | 0.08 | 0.00 | 47 | 1010.7 |
| 20260501181804 | 57 | 194 | 4.3 | 10.4 | 0.00 | 0.08 | 0.00 | 48 | 1010.7 |
| 20260501181303 | 56 | 233 | 5.2 | 10.4 | 0.00 | 0.08 | 0.00 | 48 | 1010.8 |
| 20260501180803 | 56 | 211 | 5.2 | 8.7 | 0.00 | 0.08 | 0.00 | 47 | 1010.9 |
| 20260501180304 | 56 | 234 | 5.2 | 17.4 | 0.00 | 0.08 | 0.00 | 48 | 1010.8 |
| 20260501175804 | 56 | 219 | 7.8 | 17.4 | 0.00 | 0.08 | 0.00 | 46 | 1010.9 |
| 20260501175306 | 56 | 204 | 1.7 | 8.7 | 0.00 | 0.08 | 0.00 | 48 | 1010.8 |
| 20260501174804 | 56 | 217 | 5.2 | 12.2 | 0.00 | 0.08 | 0.00 | 47 | 1010.9 |
| 20260501174304 | 56 | 185 | 5.2 | 12.2 | 0.00 | 0.08 | 0.00 | 50 | 1010.9 |
| 20260501173303 | 55 | 318 | 1.7 | 6.1 | 0.00 | 0.08 | 0.00 | 47 | 1010.9 |
| 20260501172803 | 55 | 231 | 2.6 | 8.7 | 0.00 | 0.08 | 0.00 | 51 | 1011.0 |
| 20260501172305 | 55 | 196 | 2.6 | 10.4 | 0.00 | 0.08 | 0.00 | 51 | 1011.0 |
| 20260501171803 | 55 | 218 | 7.8 | 10.4 | 0.00 | 0.08 | 0.00 | 48 | 1011.1 |
| 20260501171302 | 55 | 172 | 1.7 | 7.8 | 0.00 | 0.08 | 0.00 | 53 | 1011.0 |
| 20260501170802 | 54 | 223 | 4.3 | 10.4 | 0.00 | 0.08 | 0.00 | 54 | 1011.1 |
| 20260501170302 | 54 | 278 | 2.6 | 10.4 | 0.00 | 0.08 | 0.00 | 50 | 1011.2 |
| 20260501165802 | 54 | 222 | 4.3 | 8.7 | 0.00 | 0.08 | 0.00 | 51 | 1011.1 |